Probability
0 0 0 0 0 0 0 0 0 0 0 0 0 0 0 0 0 3 3 0 0 0 6 3 3 3 0 0 0 0 3 0 0 6 6 10 6 6 10 10 13 13 13 16
0 0 0 0 0 0 0 0 0 0 0 0 0 0 6 0 0 3 0 0 3 3 3 3 3 3 0 0 3 3 3 0 0 0 3 6 3 10 6 3 10 13 13 10
0 0 0 0 0 0 0 0 0 0 0 0 0 0 6 6 3 0 0 0 0 3 0 0 0 0 0 0 3 3 3 3 0 0 3 6 6 10 6 6 10 13 6 6
0 0 0 0 0 0 0 0 0 0 0 0 0 0 0 3 6 3 0 0 0 3 3 3 0 3 3 0 3 3 3 3 3 0 6 13 16 16 13 6 13 6 3 6
0 0 0 0 0 0 0 0 0 0 0 0 0 0 0 3 3 0 0 0 0 0 3 3 3 3 3 3 3 3 3 3 3 6 10 10 13 13 16 6 13 10 3 3
0 0 0 0 0 0 0 0 0 0 0 0 0 0 0 0 3 0 0 0 0 0 3 3 3 3 3 3 3 3 3 3 3 6 6 13 13 13 13 6 6 10 10 3
0 0 0 0 0 0 0 0 0 0 0 0 0 0 0 0 0 0 0 0 0 0 0 6 3 3 3 3 6 6 0 3 6 13 13 16 16 13 13 10 6 10 10 13
0 0 0 0 0 0 0 0 0 0 0 0 0 0 0 0 0 0 0 0 0 0 3 3 3 3 3 3 6 10 6 10 10 13 16 13 13 13 13 6 10 10 10 13
0 0 0 0 0 0 0 0 0 0 0 0 0 0 3 3 0 0 0 0 0 0 3 3 3 3 3 3 3 3 0 10 10 16 16 16 13 13 19 6 10 13 13 13
0 0 0 0 0 0 0 0 0 0 0 0 0 0 0 3 3 0 0 0 0 0 3 3 3 3 3 3 3 0 3 10 10 13 10 16 13 16 16 6 6 10 13 13
0 0 0 0 0 0 0 0 0 0 0 0 0 0 0 0 3 0 0 0 0 3 3 3 3 3 6 3 3 6 10 10 6 16 13 16 16 13 16 13 6 13 13 13
0 0 0 0 0 0 0 0 0 0 0 0 0 0 0 0 3 3 0 0 0 3 3 3 3 3 6 3 3 10 13 10 13 19 16 16 13 13 10 10 13 13 10 13
0 0 0 0 0 0 0 0 0 0 0 0 0 0 0 0 0 3 0 0 0 0 0 0 0 0 6 3 3 3 16 13 19 19 23 16 13 10 10 10 10 10 13 13
0 0 0 0 0 0 0 0 0 0 0 0 0 0 0 0 0 3 3 3 3 3 3 3 0 0 0 10 10 13 16 16 16 23 23 23 23 13 6 6 6 10 10 10
0 0 0 0 0 0 0 0 0 0 0 0 0 0 0 0 0 0 0 0 3 3 6 6 3 6 6 6 13 13 16 19 23 19 23 26 19 16 10 10 10 10 6 10
0 0 0 0 0 0 0 0 0 0 0 0 0 0 0 0 0 0 0 0 0 0 0 3 6 6 6 6 16 23 19 26 29 23 23 19 23 10 13 16 16 16 13 16
0 0 0 0 0 0 0 0 0 0 0 0 0 0 0 0 0 0 0 3 3 0 0 3 6 6 6 10 13 16 19 26 26 26 23 19 19 23 16 19 13 16 16 19
0 0 0 0 0 0 0 0 0 0 0 0 0 0 0 0 3 3 3 3 3 6 6 6 13 16 13 10 13 19 23 19 23 23 16 16 16 19 19 19 19 16 19 19
0 0 0 0 0 0 0 0 0 0 0 0 0 0 3 3 3 3 3 6 6 6 13 13 19 19 19 16 23 23 19 19 26 29 23 19 13 16 16 16 19 23 16 16
0 0 0 0 0 0 0 0 0 0 0 0 0 6 10 0 0 3 3 3 10 13 13 19 19 19 19 19 23 23 23 29 29 29 29 23 19 23 13 13 13 16 16 16
0 0 0 0 0 0 0 0 0 0 0 3 3 0 3 3 0 3 6 13 13 10 6 13 10 13 13 16 23 23 26 32 35 35 26 23 19 16 16 13 13 13 13 13
0 0 0 0 0 0 0 0 0 0 0 3 3 0 0 3 6 10 10 10 10 16 13 10 16 16 16 16 26 26 26 23 29 29 26 16 16 16 16 13 13 13 16 16
0 0 0 0 0 0 0 0 0 3 3 3 3 6 10 6 10 10 10 10 10 13 19 19 19 16 16 16 23 26 19 19 26 26 23 23 19 16 13 19 13 13 13 16
0 0 0 0 0 0 0 0 0 0 3 6 6 6 6 10 10 10 6 6 13 13 16 6 16 19 16 16 16 19 19 19 26 19 19 19 19 6 10 13 13 13 13 13
0 0 0 0 0 0 0 0 0 6 3 3 3 3 10 13 13 10 10 13 13 10 13 6 10 13 13 13 13 16 16 19 19 16 19 19 19 16 13 6 6 6 6 16
0 0 0 0 0 0 0 0 0 0 0 3 6 13 13 6 10 13 10 10 13 10 10 6 6 10 13 13 6 16 16 16 19 19 19 19 16 16 16 19 10 3 3 3
Height
5904 5906 5906 5907 5907 5908 5908 5908 5907 5907 5906 5906 5905 5905 5905 5904 5903 5903 5902 5900 5899 5898 5897 5896 5894 5893 5892 5891 5889 5888 5886 5884 5884 5883 5882 5882 5882 5882 5882 5882 5882 5882 5882 5882
5904 5905 5907 5907 5907 5908 5908 5908 5908 5908 5907 5907 5906 5906 5906 5905 5904 5904 5903 5902 5901 5899 5898 5897 5896 5895 5894 5892 5891 5889 5888 5887 5886 5885 5884 5884 5884 5883 5883 5883 5883 5883 5883 5883
5903 5906 5905 5906 5907 5908 5908 5909 5908 5908 5907 5907 5907 5907 5907 5906 5905 5905 5904 5903 5902 5901 5899 5898 5897 5896 5895 5894 5892 5891 5890 5888 5888 5887 5886 5885 5885 5884 5884 5884 5884 5883 5883 5883
5902 5903 5905 5906 5907 5907 5908 5908 5908 5908 5908 5907 5908 5908 5907 5906 5906 5905 5904 5903 5902 5901 5900 5899 5898 5897 5896 5895 5894 5892 5891 5890 5889 5888 5887 5887 5886 5885 5885 5885 5884 5884 5884 5884
5901 5902 5904 5905 5906 5907 5907 5908 5908 5908 5908 5908 5908 5908 5909 5907 5906 5906 5905 5904 5903 5902 5900 5900 5899 5898 5897 5896 5894 5893 5892 5891 5890 5889 5888 5887 5886 5886 5885 5885 5884 5884 5884 5884
5899 5900 5902 5904 5905 5906 5906 5907 5907 5907 5908 5908 5909 5909 5909 5908 5907 5906 5905 5904 5903 5902 5901 5900 5899 5899 5897 5896 5895 5893 5892 5891 5890 5889 5888 5887 5887 5886 5885 5885 5884 5884 5884 5884
5896 5898 5900 5902 5903 5904 5905 5906 5907 5907 5907 5908 5908 5908 5909 5908 5907 5906 5905 5904 5903 5902 5901 5900 5899 5898 5897 5896 5895 5893 5892 5891 5890 5889 5888 5888 5887 5886 5885 5884 5884 5884 5884 5883
5894 5896 5898 5899 5901 5902 5903 5905 5906 5906 5906 5907 5907 5907 5909 5908 5907 5906 5906 5905 5904 5902 5901 5900 5899 5898 5897 5896 5895 5893 5892 5891 5890 5889 5888 5887 5887 5886 5885 5884 5884 5883 5883 5883
5891 5894 5896 5897 5899 5900 5901 5902 5904 5904 5905 5905 5906 5907 5908 5907 5906 5906 5906 5905 5903 5902 5901 5900 5899 5898 5897 5895 5894 5893 5892 5891 5890 5888 5888 5887 5886 5885 5885 5884 5883 5883 5882 5881
5888 5890 5893 5894 5896 5897 5899 5900 5901 5902 5902 5903 5904 5905 5906 5906 5905 5905 5905 5904 5903 5902 5901 5900 5898 5897 5896 5895 5894 5892 5891 5890 5889 5888 5887 5886 5885 5885 5884 5883 5882 5881 5881 5880
5884 5887 5889 5891 5892 5894 5896 5897 5898 5899 5900 5901 5901 5905 5904 5904 5904 5904 5904 5903 5902 5901 5900 5899 5897 5896 5895 5894 5892 5891 5890 5889 5887 5886 5886 5885 5885 5884 5883 5882 5881 5880 5879 5879
5880 5882 5884 5887 5889 5890 5891 5893 5894 5896 5897 5898 5899 5903 5902 5902 5902 5902 5902 5901 5901 5900 5899 5897 5896 5895 5893 5892 5891 5890 5889 5887 5886 5885 5884 5884 5883 5882 5882 5881 5880 5879 5878 5877
5875 5877 5880 5882 5886 5886 5887 5888 5890 5892 5893 5893 5895 5899 5898 5899 5899 5899 5899 5899 5898 5897 5897 5895 5894 5893 5892 5891 5889 5888 5887 5886 5884 5883 5882 5882 5881 5880 5880 5879 5878 5877 5876 5875
5869 5871 5874 5877 5879 5881 5882 5884 5885 5887 5888 5889 5891 5893 5894 5894 5895 5895 5895 5895 5895 5894 5894 5892 5891 5891 5890 5889 5887 5886 5885 5883 5882 5881 5880 5880 5879 5878 5877 5876 5875 5875 5874 5873
5862 5865 5868 5871 5873 5875 5876 5878 5879 5881 5882 5884 5886 5887 5889 5890 5890 5891 5891 5891 5891 5891 5890 5889 5888 5887 5886 5885 5885 5883 5882 5881 5880 5879 5877 5877 5876 5875 5875 5874 5873 5872 5871 5871
5856 5858 5861 5864 5866 5868 5870 5872 5873 5875 5876 5878 5879 5881 5883 5884 5885 5886 5886 5886 5886 5886 5886 5885 5884 5883 5883 5882 5881 5880 5879 5878 5877 5876 5874 5873 5873 5872 5871 5871 5870 5869 5869 5868
5849 5851 5854 5857 5859 5861 5863 5866 5867 5868 5870 5871 5872 5875 5876 5877 5878 5879 5880 5881 5881 5881 5880 5880 5879 5879 5878 5877 5877 5876 5875 5874 5873 5872 5871 5870 5869 5868 5867 5867 5867 5866 5865 5865
5841 5844 5846 5848 5851 5853 5858 5858 5860 5861 5863 5864 5865 5867 5868 5870 5871 5872 5873 5874 5874 5875 5874 5874 5874 5873 5873 5872 5872 5871 5870 5869 5868 5868 5867 5866 5865 5864 5864 5863 5863 5862 5862 5861
5833 5836 5838 5840 5841 5844 5848 5850 5851 5853 5855 5856 5857 5858 5860 5861 5862 5864 5865 5866 5867 5867 5868 5868 5868 5868 5867 5866 5866 5865 5865 5864 5863 5862 5862 5861 5860 5859 5858 5858 5858 5857 5857 5856
5824 5827 5830 5831 5832 5835 5840 5842 5843 5845 5846 5848 5848 5849 5851 5852 5853 5856 5857 5858 5858 5859 5859 5860 5860 5860 5860 5860 5859 5859 5858 5858 5857 5856 5856 5855 5855 5854 5854 5853 5853 5852 5852 5851
5815 5817 5819 5821 5823 5825 5829 5831 5834 5836 5838 5839 5839 5840 5841 5843 5844 5846 5847 5848 5849 5850 5851 5851 5852 5852 5852 5852 5852 5852 5851 5851 5850 5850 5849 5849 5848 5848 5847 5847 5847 5846 5846 5845
5805 5808 5810 5812 5814 5818 5820 5821 5823 5825 5827 5828 5829 5831 5832 5833 5835 5836 5838 5839 5839 5840 5841 5842 5843 5843 5843 5843 5843 5843 5843 5843 5843 5843 5842 5842 5841 5841 5841 5840 5840 5840 5839 5838
5796 5799 5801 5804 5807 5808 5809 5811 5812 5814 5816 5817 5819 5820 5822 5824 5825 5826 5827 5829 5829 5831 5832 5832 5833 5834 5835 5834 5834 5834 5835 5835 5835 5835 5835 5834 5833 5833 5833 5833 5833 5832 5832 5831
5787 5789 5791 5793 5796 5798 5799 5800 5801 5803 5805 5806 5808 5810 5812 5813 5814 5816 5817 5818 5819 5820 5821 5822 5823 5824 5825 5825 5825 5825 5826 5826 5827 5827 5827 5826 5826 5825 5825 5825 5825 5825 5824 5824
5777 5779 5781 5782 5785 5787 5789 5790 5791 5792 5794 5795 5797 5799 5801 5802 5803 5805 5806 5806 5808 5809 5810 5811 5813 5814 5815 5816 5816 5816 5817 5817 5818 5818 5818 5818 5818 5816 5816 5817 5817 5816 5816 5815
5768 5769 5770 5772 5775 5776 5779 5780 5781 5782 5783 5784 5786 5788 5789 5790 5792 5793 5794 5795 5797 5798 5800 5801 5802 5804 5805 5806 5807 5807 5808 5808 5809 5809 5809 5809 5809 5809 5808 5808 5808 5807 5806 5806
Wind_Speed
9 9 7 5 3 1 1 3 4 4 4 5 6 6 6 6 7 8 9 9 9 9 8 8 9 9 9 9 10 10 10 9 9 9 8 7 6 6 5 5 4 3 4 3
10 10 8 7 5 3 1 1 2 2 2 3 3 4 4 5 6 7 8 8 8 8 8 8 9 8 9 9 9 10 9 9 8 8 8 7 6 6 5 5 4 3 3 3
11 9 9 8 6 4 2 2 1 1 1 1 2 3 3 4 4 5 6 7 7 8 8 7 7 8 7 7 8 9 8 8 7 7 7 7 6 5 4 4 4 3 2 2
13 12 11 9 8 6 5 3 2 1 1 1 2 4 2 2 3 4 5 5 6 7 7 6 5 5 6 6 7 7 7 7 7 6 6 6 5 4 4 3 3 3 2 2
15 14 12 11 9 8 7 6 5 3 3 1 2 3 3 3 3 3 4 4 5 6 6 6 4 4 5 5 7 7 7 6 6 6 6 5 4 4 3 3 2 2 1 1
16 15 14 12 11 10 9 8 7 6 5 3 3 3 3 4 4 3 3 4 4 6 6 5 4 3 4 5 6 7 6 5 5 5 5 5 4 4 3 2 2 1 1 1
18 17 15 13 13 12 10 9 9 8 7 6 4 3 3 4 4 3 3 4 4 5 5 4 4 4 4 5 5 5 4 4 4 4 5 4 4 4 3 2 2 2 2 1
17 18 16 14 14 13 12 11 11 11 9 7 6 4 4 4 4 3 3 3 4 4 4 4 4 4 4 5 5 5 4 4 3 3 4 4 4 4 4 3 3 3 3 4
18 17 16 16 15 15 14 13 11 11 10 9 8 6 5 5 5 5 4 4 5 5 4 3 4 5 5 6 5 6 5 5 4 3 4 4 4 4 4 3 4 4 5 5
19 18 18 17 17 17 17 15 13 12 12 11 10 9 7 6 7 7 6 5 6 6 6 5 6 6 6 6 6 7 6 6 6 4 4 5 5 4 4 4 5 5 6 6
20 20 20 20 19 18 18 17 16 15 15 14 13 10 8 8 8 8 8 8 8 8 7 7 8 7 7 7 7 7 7 7 6 5 5 6 6 6 6 5 5 6 7 7
22 22 22 21 21 20 20 19 19 19 18 17 16 12 10 10 10 10 10 11 11 10 10 10 9 8 8 9 8 8 8 8 8 8 7 7 7 7 7 7 7 7 7 7
23 24 24 24 23 22 22 21 21 21 21 20 19 16 13 14 13 13 13 13 13 13 12 12 11 11 10 10 10 10 10 10 9 9 9 9 9 9 9 9 9 8 8 7
26 26 26 26 25 25 24 24 23 24 24 23 22 20 17 16 16 16 15 15 15 15 14 14 13 13 12 12 12 12 11 11 11 11 10 10 11 11 11 11 10 9 8 8
28 28 28 27 27 27 27 27 26 27 26 26 24 23 22 20 19 18 18 17 17 17 17 16 15 15 15 14 13 13 13 12 12 12 12 13 12 11 11 11 10 10 10 10
30 30 29 29 29 29 29 28 28 29 28 28 27 26 25 24 23 22 20 19 19 19 19 18 17 16 16 16 16 15 15 15 14 14 14 14 14 13 12 13 12 12 12 11
32 32 31 31 31 31 32 30 30 30 30 30 29 28 28 28 27 26 24 23 22 22 22 21 19 18 19 18 18 18 18 17 16 16 15 15 15 15 15 14 14 14 14 13
33 33 33 33 33 34 32 32 33 32 32 32 32 30 30 30 29 28 27 26 25 24 24 23 22 21 21 21 21 21 21 19 18 18 17 17 17 17 17 17 16 16 16 16
35 35 35 35 36 36 34 33 34 34 34 34 34 33 33 32 32 30 29 29 27 27 26 25 24 24 24 24 23 23 22 21 20 19 18 19 19 18 18 18 18 18 18 18
36 37 38 38 38 38 36 35 35 36 36 34 35 35 35 34 33 32 31 31 30 30 28 28 27 26 26 26 25 24 23 23 21 20 20 20 20 19 19 19 19 19 19 19
37 37 38 39 40 40 38 37 36 37 36 35 35 35 35 34 34 33 32 32 32 31 31 30 29 29 28 28 28 26 25 24 23 23 22 21 21 21 21 21 21 21 20 20
38 39 38 39 40 40 38 38 38 38 37 36 35 35 35 35 34 34 34 34 34 33 32 32 31 30 30 30 30 29 28 26 24 24 24 23 23 23 23 23 23 23 22 21
38 39 39 40 40 39 39 39 39 38 38 37 36 36 36 35 35 35 35 35 35 35 34 33 32 32 31 31 31 30 30 28 27 27 26 26 26 25 25 25 25 25 24 23
37 38 39 39 39 38 38 38 38 38 38 38 38 38 37 36 36 36 36 35 36 35 35 34 34 33 32 32 32 31 30 30 29 29 28 28 28 28 27 27 27 26 25 25
37 38 39 39 39 39 39 39 39 39 39 39 38 39 39 38 37 37 37 36 36 36 36 36 35 34 33 33 32 31 31 30 30 30 30 30 30 28 28 28 28 28 28 27
37 38 38 39 39 40 40 39 39 39 39 39 38 39 39 39 38 38 38 37 37 37 36 36 35 34 34 33 33 32 31 31 32 31 30 31 31 31 30 28 28 28 28 27
Wind_Direction
194 188 186 186 187 173 104 63 57 64 70 67 71 72 66 52 51 53 49 48 48 45 43 47 44 44 44 46 44 43 50 54 59 66 69 70 77 81 89 88 81 80 100 110
206 201 201 205 212 227 252 20 39 67 76 68 70 63 54 40 42 42 38 41 42 36 39 41 43 43 43 45 43 44 50 53 57 64 67 69 72 71 74 78 72 73 88 103
214 212 214 217 218 237 263 305 350 11 29 56 37 39 30 24 29 33 32 33 30 28 27 34 36 37 39 41 40 43 45 50 55 59 61 61 65 68 68 65 61 69 84 89
219 218 218 218 226 237 246 265 287 308 308 26 17 13 3 6 15 23 27 29 25 25 22 23 29 35 36 37 37 40 41 45 45 44 50 51 53 52 54 56 61 70 81 91
219 220 218 222 230 238 248 255 262 261 257 298 338 358 10 355 6 7 13 21 19 21 23 23 27 32 32 32 29 32 35 39 36 31 32 34 33 29 29 33 42 52 63 53
219 223 225 228 234 240 247 245 252 259 252 273 309 322 353 350 354 352 355 357 1 10 18 20 17 24 26 24 21 22 27 30 28 21 20 20 13 9 6 3 15 11 6 357
218 223 226 228 233 235 239 244 249 259 266 277 286 296 333 337 330 331 342 340 344 7 13 12 9 9 5 6 7 8 14 16 16 13 13 12 3 357 351 338 342 339 323 294
221 224 227 227 232 236 237 243 250 261 269 272 271 280 310 310 307 313 331 345 353 356 5 17 9 360 351 346 345 349 350 350 350 346 345 348 350 352 347 330 311 307 301 294
222 225 230 233 234 236 237 239 249 259 265 269 270 281 296 290 287 295 307 321 327 338 347 360 356 345 343 336 330 330 347 337 327 321 321 320 323 331 330 318 310 306 305 302
226 227 229 234 237 239 240 238 245 254 262 267 271 277 288 286 275 281 290 303 310 320 327 326 328 327 333 324 320 318 322 318 316 299 299 304 304 305 300 300 302 299 300 296
228 231 231 234 236 241 241 241 244 252 260 266 271 277 285 282 278 274 282 292 299 306 314 316 315 318 324 327 317 314 312 315 309 299 295 301 300 296 295 296 298 298 296 288
232 235 234 236 239 243 245 245 248 252 258 264 268 272 276 278 278 277 280 285 293 298 301 303 307 309 314 318 320 313 306 308 302 293 295 297 296 294 291 292 293 290 290 285
236 238 238 237 239 243 246 248 251 253 256 261 265 270 270 275 277 277 277 281 288 293 294 297 296 299 303 308 312 313 308 304 298 292 291 293 291 289 286 288 289 288 288 291
238 241 242 241 242 244 247 249 252 256 258 261 264 268 267 271 275 275 277 279 283 289 290 291 289 288 293 297 302 305 305 303 297 290 283 289 290 286 283 284 284 284 287 292
239 241 240 241 243 245 248 249 251 254 258 262 265 268 268 268 270 272 275 276 278 284 287 290 290 286 288 292 295 297 297 296 297 296 288 288 289 283 281 282 284 287 288 291
241 243 243 243 245 248 250 250 251 253 257 261 264 265 267 266 267 268 271 273 275 280 283 285 287 285 286 289 291 292 291 290 290 292 293 289 288 284 282 283 282 283 284 288
244 245 246 247 248 249 250 250 252 255 258 260 262 263 263 263 263 265 267 269 271 275 278 280 282 282 286 286 286 288 289 289 286 287 286 286 287 283 278 279 280 281 280 282
245 246 247 249 249 250 253 253 254 255 258 260 262 263 263 263 262 263 264 264 266 270 274 277 279 279 281 283 284 285 287 288 287 284 284 283 283 282 281 277 276 277 279 279
245 247 249 251 252 254 254 255 255 257 259 261 263 264 264 264 264 263 263 263 265 267 269 271 273 274 276 279 282 282 282 285 286 284 283 283 282 281 281 277 277 277 277 278
247 248 250 252 254 255 257 257 258 260 260 261 264 265 264 264 263 263 263 263 265 266 267 268 269 269 272 275 278 279 278 279 280 280 279 278 280 279 278 277 277 278 279 279
248 249 251 253 256 257 258 258 258 259 262 262 263 263 262 261 262 263 262 262 263 264 265 266 267 267 269 270 272 274 275 274 275 275 275 276 278 278 277 276 277 278 279 279
249 250 251 253 256 258 260 261 261 262 262 262 261 261 261 261 262 262 263 263 264 263 264 264 265 265 266 267 268 270 271 271 271 271 272 274 274 275 275 275 277 277 276 275
250 251 253 255 258 260 261 262 262 262 262 262 261 261 260 260 261 261 262 263 263 263 262 262 262 262 263 265 266 266 267 268 269 270 272 273 274 275 275 275 275 275 272 272
252 253 254 256 258 259 260 262 262 261 261 261 260 260 260 260 261 261 260 261 262 262 261 259 259 260 261 263 265 263 264 265 266 268 269 271 274 276 276 275 275 275 273 272
254 255 256 258 258 259 260 261 262 262 262 261 260 260 260 261 262 260 260 261 261 260 259 258 258 257 257 260 261 260 261 263 264 266 267 269 272 274 274 275 275 274 273 273
254 256 257 258 258 259 259 261 261 262 262 262 261 261 262 262 262 260 260 260 259 258 257 257 257 256 257 258 259 259 261 262 264 266 267 269 271 273 276 274 275 274 276 275